Reflectivity
-20 -20 -20 -20 -20 -20 -20 -20 -20 -20 -20 -20 -20 -20 -20 -20 -20 -20 -20 -20 -20 -10 -14 -13 -20 -20 -20 -20 -20 -20 -20 -20 -20 -20 -20 -20 -20 -20 -20 -20 -20 -20 -20 -20 -20
-20 -20 -20 -20 -20 -20 -20 -20 -20 -20 -20 -20 -20 -20 -20 -20 -20 -20 -20 -20 -20 -20 -20 -14 -20 -4 -19 -0 -7 -20 8 -4 -14 -20 0 -18 -20 -20 -20 -20 -20 -20 -20 -20 -20
-20 -20 -20 -20 -20 -20 -20 -20 -20 -20 -20 -20 -20 -20 -20 -20 -20 -20 -20 -20 -20 -20 -20 -20 -20 -20 -20 -20 -20 -19 34 4 -18 -20 -20 -20 -20 -20 -20 -20 -20 -20 -20 -20 -20
-20 -20 -20 -20 -20 -20 -20 -20 -20 -20 -20 -20 -20 -20 -20 -20 -20 -20 -20 -20 -20 -20 -20 -20 -20 -20 -20 -20 -19 12 -20 -20 -20 -20 -20 -20 -20 -20 -20 -20 -20 -20 -20 -20 -20
-20 -20 -20 -20 -20 -20 -20 -20 -20 -20 -20 -20 -20 -20 -20 -20 -20 -20 -20 -20 -20 -20 -20 -20 -20 -20 -20 -20 -4 -20 -20 -20 -20 -20 -17 -20 -20 -20 -20 -20 -20 -20 -20 -20 -20
-18 11 -20 -20 -20 -20 -20 -20 -20 -20 -20 -20 -20 -20 -20 -20 -20 -20 -20 -20 -20 -20 -20 -20 -20 -20 -20 -20 -20 -20 -20 -20 -20 -20 -20 -20 -20 -20 -20 -20 -20 -20 -20 -20 -20
-16 -1 -20 -20 -20 -20 -20 -20 -20 -20 -20 -20 -20 -20 -20 -20 -20 -20 -20 -20 -20 -20 -20 -20 -20 -20 -20 -20 -20 -20 -20 -20 -20 -20 -20 -20 -20 -20 -20 -20 -20 -20 -20 -20 -20
-5 -20 -20 -20 -20 -20 -20 -20 -20 -20 -20 -20 -20 -20 -20 -20 -20 -20 -20 -20 -20 -20 -20 -20 -20 -20 -20 -20 -20 -20 -20 -20 -20 -20 -20 -20 -20 -20 -20 -20 -20 -20 -20 -20 -20
4 -20 -20 -20 -20 -20 -20 -20 -20 -20 -20 -20 -20 -20 -20 -20 -20 -20 -20 -20 -20 -20 -20 -20 -20 -20 -20 -20 -20 -20 -20 -20 -20 -20 -20 -20 -20 -20 -20 -20 -20 -20 -20 -20 -20
-2 -20 -20 -20 -20 -20 -20 -20 -20 -20 -20 -20 -20 -20 -20 -20 -20 -20 -20 -20 -20 -20 -20 -20 -20 -20 -20 -20 -20 -20 -20 -20 -20 -20 -20 -20 -20 -20 -20 -20 -20 -20 -20 -20 -20
-12 -20 -20 -20 -20 -20 -20 -20 -20 -20 -20 -20 -20 -20 -20 -20 -20 -20 -20 -20 -20 -20 -20 -20 -20 -20 -20 -20 -20 -20 -20 -20 -20 -20 -20 -20 -20 -20 -20 -20 -20 -20 -20 -20 -20
-1 -20 -20 -20 -20 -10 -14 -20 -20 -20 -20 -20 -20 -20 -20 -20 -20 -20 -20 -20 -20 -20 -20 -20 -20 -20 -20 -20 -20 -20 -20 -20 -20 -20 -20 -20 -20 -20 -20 -20 -20 -20 -20 -20 -20
2 -4 -20 -20 -20 -19 -20 -20 -20 -20 -20 -20 -20 -20 -20 -20 -20 -20 -20 -20 -20 -20 -20 -20 -20 -20 -20 -20 -20 -20 -20 -20 -20 -20 -20 -20 -20 -20 -20 -20 -20 -20 -20 -20 -20
10 10 9 7 -20 -20 -20 -20 -20 -20 -20 -20 -20 -20 -20 -20 -20 -20 -20 -20 -20 -20 -20 -20 -20 -20 -20 -20 -20 -20 -20 -20 -20 -20 -20 -20 -20 -20 -20 -20 -20 -20 -20 -20 -20
-20 -19 1 -17 -20 -20 -20 -20 -20 -20 -20 -20 -20 -20 -20 -20 -20 -20 -20 -20 -20 -20 -20 -20 -20 -20 -20 -20 -20 -20 -20 -20 -20 -20 -20 -20 -20 -20 -20 -20 -20 -20 -20 -20 8
-20 -20 6 -20 -20 -20 -20 -20 -20 -20 -20 -20 -20 -20 -20 -20 -20 -20 -20 -20 -20 -20 -20 -20 -20 -20 -20 -20 -20 -20 -20 -20 -20 -20 -20 -20 -20 -20 -20 -20 -20 -20 -20 -20 4
-20 -20 0 -20 -20 -20 -20 -20 -20 -20 -20 -20 -20 -20 -20 -20 -20 -20 -20 -20 -20 -20 -20 -20 -20 -20 -20 -20 -20 -20 -20 -20 -20 -20 -20 -20 -20 -20 -20 -20 -20 -20 -20 5 18
-20 -20 -20 -20 -20 -20 -20 -20 -20 -20 -20 -20 -20 -20 -20 -20 -20 -20 -20 -20 -20 -20 -20 -20 -20 -20 -20 -20 -20 -20 -20 -20 -20 -20 -20 -20 -20 -20 -20 -20 -20 -14 -20 -20 -11
-20 -20 -20 -20 -20 -20 -20 -20 -20 -20 -20 -20 -20 -20 -20 -20 -20 -20 -20 -20 -20 -20 -20 -20 -20 -20 -20 -20 -20 -20 -20 -20 -20 -20 -20 -20 -20 -20 -20 -20 -20 -20 -20 -20 -17
-20 -20 -20 -20 -20 -20 -20 -20 -20 -20 -20 -20 -20 -20 -20 -20 -20 -20 -20 -20 -20 -20 -20 -20 -20 -20 -20 -20 -20 -20 -20 -20 -20 -20 -20 -20 -20 -20 -20 -20 -20 -20 -20 -20 -20
-20 -20 -20 -20 -20 -20 -20 -20 -20 -20 -20 -20 -20 -20 -20 -20 -20 -20 -20 -20 -20 -20 -20 -20 -20 -20 -20 -20 -20 -20 -20 -20 -20 -20 -20 -20 -20 -20 -20 -20 -20 -20 -20 -20 -20
-20 -20 -20 -20 -20 -20 -20 -20 -20 -20 -20 -20 -20 -20 -20 -20 -20 -20 -20 -20 -20 -20 -20 -20 -20 -20 -20 -20 -20 -20 -20 -20 -20 -20 -20 -20 -20 -20 -20 -20 -20 -20 -20 -20 -20
-20 -20 -20 -20 -20 -20 -20 -20 -20 -20 -20 -20 -20 -20 -20 -20 -20 -20 -20 -20 -20 -20 -20 -20 -20 -20 -20 -20 -20 -20 -20 -20 -20 -20 -20 -20 -20 -20 -20 -20 -20 -20 -20 -20 -20
-20 -20 -20 -20 -20 -20 -20 -20 -20 -20 -20 -20 -20 -20 -20 -20 -20 -20 -20 -20 -20 -20 -20 -20 -20 -20 -20 -20 -20 -20 -20 -20 -20 -20 -20 -20 -20 -20 -20 -20 -20 -20 -20 -20 -20
-20 -20 -20 -20 -20 -20 -20 -20 -20 -20 -20 -20 -20 -20 -20 -20 -20 -20 -20 -20 -20 -20 -20 -20 -20 -20 -20 -20 -20 -20 -20 -20 -20 -20 -20 -20 -20 -20 -20 -20 -20 -20 -20 -20 -20
-20 -20 -20 -20 -20 -20 -20 -20 -20 -20 -20 -20 -20 -20 -20 -20 -20 -20 -20 -20 -20 -20 -20 -20 -20 -20 -20 -20 -20 -20 -20 -20 -20 -20 -20 -20 -20 -20 -20 -20 -20 -20 -20 -20 -20
-20 -20 -20 -20 -20 -20 -20 -20 -20 -20 -20 -20 -20 -20 -20 -20 -20 -20 -20 -20 -20 -20 -20 -20 -20 -20 -20 -20 -20 -20 -20 -20 -20 -20 -20 -20 -20 -20 -20 -20 -20 -20 -20 -20 -20
Wind_Speed
14 15 15 15 15 15 16 16 15 16 16 16 17 17 16 16 15 6 5 8 10 18 10 12 12 12 3 2 3 3 2 5 8 5 4 3 17 10 10 21 12 3 7 17 23
14 15 16 16 16 16 15 16 16 16 16 16 17 18 16 15 4 4 4 17 21 16 12 12 12 7 6 7 5 4 2 7 6 5 4 3 19 17 11 15 13 15 7 24 23
15 15 15 17 16 17 17 16 16 16 16 16 16 18 17 12 4 6 18 14 18 12 2 6 10 4 3 5 8 6 19 12 9 6 12 10 12 6 17 14 23 19 13 24 20
15 16 16 16 18 17 18 17 16 16 15 15 16 17 19 2 1 1 12 14 16 8 2 2 5 4 6 6 5 16 10 7 12 11 1 5 11 12 7 11 19 16 11 18 21
16 15 17 17 17 17 18 18 17 16 15 15 15 14 4 2 8 5 8 14 13 10 9 7 7 6 5 7 3 10 6 7 6 6 12 7 6 9 14 18 16 13 8 12 16
17 17 17 18 17 18 18 18 18 17 14 14 14 15 1 2 2 10 8 7 10 11 11 13 11 11 4 2 2 8 11 7 4 2 6 17 6 6 14 18 16 14 8 8 9
18 18 17 17 18 19 19 18 20 18 14 12 11 4 2 13 2 6 9 7 4 7 4 7 5 6 1 7 7 7 6 7 3 2 3 7 6 14 16 18 17 13 10 9 9
19 18 18 19 19 19 20 20 20 18 14 8 3 1 8 7 4 4 4 8 9 10 7 11 4 4 4 6 4 3 5 3 4 4 4 2 4 12 18 18 16 16 13 12 10
19 18 19 19 19 19 20 23 20 15 7 4 0 1 10 11 4 7 8 7 7 8 9 8 1 2 5 7 2 4 5 4 2 9 5 3 6 13 18 17 16 16 15 13 10
19 18 18 18 17 18 24 15 10 10 4 4 4 3 6 8 4 5 5 6 4 8 10 8 7 3 5 6 6 8 4 3 7 8 8 6 7 18 18 18 17 16 14 12 10
19 18 19 18 17 14 13 5 5 4 1 9 7 6 5 3 1 3 6 3 3 4 4 6 7 7 14 7 10 7 10 10 4 6 4 6 10 19 19 16 16 13 14 12 13
20 18 19 19 17 15 2 1 7 4 8 11 12 9 11 3 6 8 6 5 3 7 5 7 7 18 9 11 3 8 8 4 2 5 4 7 12 16 18 19 20 19 15 16 12
21 20 21 22 23 0 3 9 5 11 1 9 8 7 8 8 7 9 7 5 6 4 6 5 15 11 6 1 5 4 5 6 8 7 6 5 5 8 14 13 15 16 16 15 17
22 22 22 29 2 4 5 5 8 6 5 10 6 9 4 7 6 9 9 9 3 11 10 8 9 8 3 2 6 4 1 3 4 7 6 8 6 6 11 17 16 16 16 17 17
21 21 21 10 5 3 5 12 12 5 3 4 4 2 8 9 2 3 5 4 10 11 5 10 5 6 1 6 4 9 1 2 1 2 3 4 5 7 8 13 16 17 18 18 12
19 17 19 3 2 9 12 14 5 8 7 3 7 6 7 3 5 4 5 3 5 3 2 8 5 4 6 2 1 3 4 8 5 4 2 8 7 5 10 18 6 4 9 9 10
23 15 10 4 6 5 9 6 7 4 6 5 7 7 9 7 5 5 3 7 5 3 6 8 8 5 3 2 9 9 8 6 6 6 7 2 7 9 7 7 9 13 13 14 11
25 23 6 7 5 5 5 7 4 7 6 6 3 5 10 6 8 5 5 5 3 6 3 2 10 4 3 8 8 2 9 7 3 3 4 4 5 4 3 6 6 15 11 10 12
23 1 3 6 9 4 6 3 9 6 3 5 3 5 5 7 6 5 9 9 11 10 9 5 8 5 7 5 10 4 2 8 5 2 4 3 3 7 4 5 4 10 14 7 12
4 5 7 6 10 6 6 7 7 4 5 6 1 5 10 9 7 8 8 8 8 13 8 6 4 4 3 2 2 8 5 4 5 3 3 5 4 7 4 5 5 7 10 7 7
3 5 6 12 5 6 5 9 7 5 7 3 2 4 7 5 8 8 11 8 14 9 12 8 4 9 2 6 9 2 2 3 5 5 7 4 6 7 10 10 9 7 9 8 3
4 4 5 9 5 2 3 6 4 6 3 6 5 9 6 3 3 4 11 12 12 11 10 12 7 6 13 6 4 8 4 6 7 5 1 6 7 2 9 9 9 8 8 8 7
3 5 5 5 4 2 6 7 6 11 9 6 6 5 2 3 2 7 6 15 10 10 12 9 2 2 11 9 6 4 6 6 5 4 2 7 6 4 6 7 7 8 7 9 11
2 5 6 2 2 9 5 8 7 8 11 10 9 4 4 4 4 6 4 7 11 9 9 11 5 9 9 10 4 3 6 4 7 5 3 5 7 2 5 8 6 5 6 9 8
2 6 3 4 5 7 2 5 9 7 6 2 6 7 5 3 7 4 2 8 6 9 7 8 7 6 7 6 2 6 9 7 6 8 8 7 13 9 11 12 9 7 6 9 14
1 4 6 5 5 5 6 17 17 18 5 11 4 10 6 6 9 8 3 1 6 4 4 4 3 3 3 5 5 9 13 11 8 6 7 15 9 8 9 8 7 9 10 9 8
4 4 2 6 4 4 2 10 6 9 12 17 12 8 4 9 6 8 7 6 8 5 5 8 7 5 8 4 7 8 8 9 5 4 13 9 11 9 5 10 10 9 9 9 8
Wind_Direction
350 347 343 342 341 338 336 336 337 334 332 331 328 325 327 325 313 153 228 197 193 173 121 142 182 131 151 84 251 286 315 136 186 161 153 211 115 151 127 133 149 160 118 135 146
349 347 342 340 338 335 334 332 333 332 331 331 327 323 327 333 321 243 191 142 151 169 154 168 157 151 155 179 173 213 118 225 195 143 122 124 118 132 137 146 116 130 117 141 143
348 346 342 336 336 332 330 329 330 330 330 330 326 322 321 325 329 259 127 132 166 179 153 190 118 154 198 183 181 169 99 286 141 144 173 137 116 119 131 143 150 161 154 146 153
349 343 339 336 332 331 326 326 327 328 328 328 324 320 316 260 302 192 139 134 168 188 102 212 217 166 260 224 188 92 111 193 103 84 21 154 121 137 159 162 155 158 155 146 162
344 342 336 335 332 329 324 322 322 323 323 323 322 321 330 346 252 158 153 136 152 164 195 198 206 207 247 204 202 96 108 83 95 115 85 124 108 138 142 143 149 155 161 156 178
345 342 339 334 332 327 323 319 316 315 317 319 322 319 321 278 231 148 164 163 184 179 183 178 209 216 351 355 74 174 118 114 43 33 107 113 77 129 146 145 152 160 180 190 178
342 339 337 336 331 326 322 315 309 307 307 311 315 315 310 235 259 165 172 211 210 200 234 244 259 60 285 84 338 95 86 103 142 302 11 96 64 149 152 152 157 169 185 203 217
340 338 337 335 331 326 318 309 302 297 294 296 319 332 249 255 195 197 196 287 258 257 229 265 231 170 143 109 103 112 92 107 141 175 129 58 167 154 162 159 168 177 190 201 224
339 333 335 334 331 324 315 306 297 286 261 227 38 141 268 311 227 217 181 241 293 307 302 278 37 254 104 126 10 234 157 179 161 185 143 173 130 181 169 167 178 183 193 198 211
339 333 331 332 331 326 317 294 284 309 162 194 254 333 274 230 209 213 230 247 266 322 343 16 30 12 351 81 223 202 174 132 193 193 183 181 196 172 179 174 186 189 192 194 190
340 331 330 328 328 334 345 4 19 3 15 196 203 238 295 264 84 245 221 222 310 1 294 346 31 286 278 243 227 199 138 164 211 208 136 183 160 180 185 184 187 198 192 188 186
337 331 329 324 320 322 290 206 218 140 302 227 236 256 277 87 312 226 106 146 193 244 317 347 273 265 234 251 354 49 92 155 52 199 159 165 189 186 185 193 189 189 192 188 176
338 334 330 324 316 177 202 238 302 31 336 286 198 210 229 135 213 231 121 196 199 267 271 195 256 309 222 7 24 3 140 175 179 160 258 94 330 189 207 198 193 197 191 189 178
339 339 338 329 349 328 258 286 310 142 46 273 196 256 186 184 261 216 183 163 183 227 248 234 280 211 186 247 117 4 72 80 72 120 205 169 236 217 202 202 197 194 193 196 187
334 334 333 323 291 283 262 325 307 68 15 239 198 218 159 159 219 271 165 113 222 243 57 262 345 325 156 227 131 226 171 122 265 70 60 340 88 269 150 212 207 201 199 197 192
319 321 334 110 227 249 307 302 46 52 259 233 149 183 125 223 238 333 162 172 213 230 271 245 266 230 211 302 41 255 33 34 47 98 35 217 132 286 186 202 163 141 125 128 123
314 312 313 290 239 344 326 34 52 158 298 208 185 160 167 196 259 156 232 159 173 69 308 336 287 277 192 5 353 64 50 354 346 8 220 224 78 226 229 204 143 137 119 142 131
313 312 220 211 240 353 20 56 189 226 247 306 120 96 174 171 237 190 173 185 258 106 79 190 321 174 251 165 190 135 138 155 264 163 222 348 143 243 183 109 96 106 149 165 183
316 330 257 244 198 117 76 109 212 223 306 10 358 104 261 217 182 138 181 198 204 168 167 166 269 268 204 175 129 264 149 193 155 85 79 289 344 30 79 78 75 84 121 144 199
334 332 253 155 144 87 84 226 231 236 17 30 306 160 199 211 163 148 188 202 226 190 158 227 274 262 243 81 240 152 187 18 6 145 84 343 306 173 147 129 102 94 114 144 191
14 342 266 126 99 59 177 234 278 290 358 17 269 244 224 191 205 182 210 249 209 206 169 164 101 284 32 191 196 335 7 63 122 135 142 147 264 208 168 157 126 106 99 119 144
351 321 300 133 88 170 199 209 301 308 348 278 261 208 207 193 292 182 215 206 189 176 165 197 158 207 218 273 162 168 199 142 116 271 45 130 256 268 160 141 135 133 116 117 134
340 266 296 124 135 258 272 266 234 266 262 263 311 326 272 168 259 189 232 235 213 149 178 169 250 4 344 349 339 195 227 139 111 76 198 123 250 347 130 128 135 141 129 119 130
0 331 312 88 219 158 212 260 260 263 260 233 245 246 310 354 187 279 304 295 208 185 163 112 124 152 189 213 171 301 250 130 117 92 177 208 140 190 147 142 158 157 159 107 128
150 260 237 298 323 327 200 275 282 291 255 257 286 208 214 269 334 262 317 317 342 148 132 117 159 164 209 217 216 256 224 183 143 168 128 179 153 199 179 164 172 163 144 123 124
5 11 337 280 273 291 246 240 248 266 224 291 240 253 215 194 188 287 282 25 238 274 109 17 193 145 258 299 13 297 209 181 167 175 137 154 175 193 182 141 151 150 118 113 137
314 330 111 275 323 342 331 315 277 275 260 237 251 276 267 246 238 209 208 189 234 206 170 134 131 91 259 38 9 333 231 175 175 167 150 160 205 144 161 161 162 156 140 141 136